SR5MRF Weather Reports


time (UTC)temp
C
wind
direction
speed
KPH
gust
KPH
rain 1hr
cm
rain 24hr
cm
rain mn
cm
humidity
%
barometer
mb
20260507052037 15 337 0.0 0.0 0.00 0.00 0.00 76 1005.6
20260507051838 15 337 0.0 0.0 0.00 0.00 0.00 76 1005.7
20260507051337 15 337 0.0 0.0 0.00 0.00 0.00 76 1005.6
20260507050838 15 315 0.0 0.0 0.00 0.00 0.00 76 1005.4
20260507050637 15 337 0.0 0.0 0.00 0.00 0.00 76 1005.3
20260507045937 15 337 0.0 0.0 0.00 0.00 0.00 77 1005.2
20260507045838 15 337 0.0 0.0 0.00 0.00 0.00 77 1005.2
20260507045237 15 337 0.0 0.0 0.00 0.00 0.00 77 1005.2
20260507044838 15 337 0.0 0.0 0.00 0.00 0.00 77 1005.1
20260507044538 15 337 0.0 0.0 0.00 0.00 0.00 77 1005.0
20260507043837 15 315 0.0 0.0 0.00 0.00 0.00 77 1005.0
20260507043137 14 315 0.0 0.0 0.00 0.00 0.00 77 1004.8
20260507042838 14 315 0.0 0.0 0.00 0.00 0.00 77 1004.7
20260507042437 14 337 0.0 0.0 0.00 0.00 0.00 77 1004.6
20260507041838 15 337 0.0 0.0 0.00 0.00 0.00 77 1004.6
20260507041738 15 337 0.0 0.0 0.00 0.00 0.00 77 1004.7
20260507041038 14 337 0.0 0.0 0.00 0.00 0.00 77 1004.7
20260507040838 14 315 0.0 0.0 0.00 0.00 0.00 77 1004.8
20260507040338 14 337 0.0 0.0 0.00 0.00 0.00 76 1004.6
20260507035838 15 337 0.0 0.0 0.00 0.00 0.00 76 1004.7
20260507035638 15 337 0.0 0.0 0.00 0.00 0.00 76 1004.5
20260507034937 15 337 0.0 0.0 0.00 0.00 0.00 76 1004.5
20260507034838 15 337 0.0 0.0 0.00 0.00 0.00 76 1004.6
20260507034238 15 337 0.0 0.0 0.00 0.00 0.00 75 1004.4
20260507033838 15 337 0.0 0.0 0.00 0.00 0.00 75 1004.5
20260507033538 15 337 0.0 0.0 0.00 0.00 0.00 75 1004.4
20260507032838 15 337 0.0 0.0 0.00 0.00 0.00 75 1004.3
20260507032138 15 337 0.0 0.0 0.00 0.00 0.00 75 1004.3
20260507031838 15 337 0.0 0.0 0.00 0.00 0.00 75 1004.3
20260507031438 15 337 0.0 0.0 0.00 0.00 0.00 75 1004.3
20260507030838 15 337 0.0 0.0 0.00 0.00 0.00 75 1004.3
20260507030738 15 337 0.0 0.0 0.00 0.00 0.00 75 1004.2
20260507030038 15 337 0.0 0.0 0.00 0.00 0.00 75 1004.1
20260507025839 15 337 0.0 0.0 0.00 0.00 0.00 75 1004.2
20260507025338 15 337 0.0 0.0 0.00 0.00 0.00 75 1004.2
20260507024839 15 337 0.0 0.0 0.00 0.00 0.00 74 1004.1
20260507024638 15 337 0.0 0.0 0.00 0.00 0.00 74 1004.0
20260507023938 15 337 0.0 0.0 0.00 0.00 0.00 73 1004.1
20260507023839 15 337 0.0 0.0 0.00 0.00 0.00 73 1004.1
20260507023238 15 337 0.0 0.0 0.00 0.00 0.00 73 1004.1
20260507022839 15 337 0.0 0.0 0.00 0.00 0.00 73 1004.1
20260507022538 15 337 0.0 0.0 0.00 0.00 0.00 73 1004.0
20260507021838 15 337 0.0 0.0 0.00 0.00 0.00 74 1004.1
20260507021138 15 315 0.0 0.0 0.00 0.00 0.00 73 1004.0
20260507020839 15 315 0.0 0.0 0.00 0.00 0.00 73 1004.1
20260507020438 15 315 0.0 0.0 0.00 0.00 0.00 72 1004.1
20260507015738 15 315 0.0 0.0 0.00 0.00 0.00 72 1004.1
20260507015038 15 337 0.0 0.0 0.00 0.00 0.00 71 1004.0
20260507014839 16 337 0.0 0.0 0.00 0.00 0.00 71 1004.2
20260507014338 16 337 0.0 0.0 0.00 0.00 0.00 71 1004.2
20260507013839 16 315 0.0 0.0 0.00 0.00 0.00 71 1004.2
20260507013638 16 315 0.0 0.0 0.00 0.00 0.00 70 1004.4
20260507012938 16 337 0.0 0.0 0.00 0.00 0.00 69 1004.2
20260507012839 16 337 0.0 0.0 0.00 0.00 0.00 68 1004.4
20260507012238 16 337 0.0 0.0 0.00 0.00 0.00 68 1004.1
20260507011839 16 337 0.0 0.0 0.00 0.00 0.00 68 1004.1
20260507011538 16 337 0.0 0.0 0.00 0.00 0.00 68 1004.1
20260507010838 16 337 0.0 0.0 0.00 0.00 0.00 68 1004.0
20260507010138 16 315 0.0 0.0 0.00 0.00 0.00 67 1003.7
20260507005438 16 337 0.0 0.0 0.00 0.00 0.00 67 1003.9
20260507004839 16 337 0.0 0.0 0.00 0.00 0.00 67 1003.9
20260507004738 16 337 0.0 0.0 0.00 0.00 0.00 67 1003.8
20260507004038 16 337 0.0 0.0 0.00 0.00 0.00 65 1004.0
20260507003839 16 337 0.0 0.0 0.00 0.00 0.00 65 1004.0
20260507003338 17 292 0.0 0.0 0.00 0.00 0.00 65 1004.0
20260507002839 17 292 0.0 0.0 0.00 0.00 0.00 64 1004.0
20260507002638 17 180 0.0 0.0 0.00 0.00 0.00 64 1004.1
20260507001938 17 315 0.0 0.0 0.00 0.00 0.00 61 1004.2
20260507001839 17 315 0.0 0.0 0.00 0.00 0.00 61 1004.2
20260507001238 17 315 0.0 0.0 0.00 0.00 0.00 61 1004.1
20260507000839 17 315 0.0 0.0 0.00 0.00 0.00 61 1004.0
20260507000538 17 337 0.0 0.0 0.00 0.00 0.00 61 1004.0
20260506235838 17 337 0.0 0.0 0.00 0.00 0.00 61 1003.7
20260506235138 17 247 0.0 0.0 0.00 0.00 0.00 61 1003.7
20260506234839 17 180 0.0 0.0 0.00 0.00 0.00 61 1003.6
20260506234438 17 157 0.0 0.0 0.00 0.00 0.00 61 1003.6
20260506233839 17 202 0.0 0.0 0.00 0.00 0.00 60 1003.5
20260506233738 17 202 0.0 0.0 0.00 0.00 0.00 60 1003.5
20260506233038 17 202 0.0 0.0 0.00 0.00 0.00 60 1003.4
20260506232839 17 202 0.0 0.0 0.00 0.00 0.00 60 1003.5
20260506232338 17 202 0.0 0.0 0.00 0.00 0.00 60 1003.3
20260506231638 17 202 0.0 0.0 0.00 0.00 0.00 60 1003.6
20260506230938 18 202 0.0 0.0 0.00 0.00 0.00 60 1003.5
20260506230839 18 202 0.0 0.0 0.00 0.00 0.00 60 1003.5
20260506230238 18 202 0.0 0.0 0.00 0.00 0.00 60 1003.6
20260506225839 18 225 0.0 0.0 0.00 0.00 0.00 60 1003.7
20260506225538 18 225 0.0 0.0 0.00 0.00 0.00 60 1003.8
20260506224838 18 225 0.0 0.0 0.00 0.00 0.00 60 1003.6
20260506224138 18 225 0.0 0.0 0.00 0.00 0.00 59 1003.8
20260506223839 18 225 0.0 0.0 0.00 0.00 0.00 59 1003.8
20260506223438 18 225 0.0 0.0 0.00 0.00 0.00 59 1003.6
20260506222738 18 225 0.0 0.0 0.00 0.00 0.00 59 1003.6
20260506222038 18 225 0.0 0.0 0.00 0.00 0.00 59 1003.8
20260506221839 18 225 0.0 0.0 0.00 0.00 0.00 59 1003.8
20260506221338 18 202 0.0 0.0 0.00 0.00 0.00 59 1003.8
20260506220638 18 180 0.0 0.0 0.00 0.00 0.00 59 1003.7
20260506215938 18 180 0.0 0.0 0.00 0.00 0.00 60 1003.9
20260506215839 18 180 0.0 0.0 0.00 0.00 0.00 60 1003.8
20260506215238 18 202 0.0 0.0 0.00 0.00 0.00 60 1003.7
20260506214538 18 315 0.0 0.0 0.00 0.00 0.00 59 1003.6
20260506213838 18 315 0.0 0.0 0.00 0.00 0.00 59 1003.3
20260506213138 18 315 0.0 0.0 0.00 0.00 0.00 60 1003.3
20260506212839 18 315 0.0 0.0 0.00 0.00 0.00 60 1003.3
20260506212438 18 315 0.0 0.0 0.00 0.00 0.00 60 1003.2
20260506211738 18 315 0.0 0.0 0.00 0.00 0.00 60 1003.2
20260506211038 18 315 0.0 0.0 0.00 0.00 0.00 59 1003.3
20260506210839 18 315 0.0 0.0 0.00 0.00 0.00 59 1003.4
20260506210338 18 315 0.0 0.0 0.00 0.00 0.00 59 1003.3
20260506205839 18 315 0.0 0.0 0.00 0.00 0.00 58 1003.6
20260506205638 18 315 0.0 0.0 0.00 0.00 0.00 58 1003.6
20260506205214 18 315 0.0 0.0 0.00 0.00 0.00 57 1003.3
20260506204938 18 315 0.0 0.0 0.00 0.00 0.00 57 1003.5
20260506204839 18 315 0.0 0.0 0.00 0.00 0.00 57 1003.3
20260506204238 18 315 0.0 0.0 0.00 0.00 0.00 57 1003.5
20260506203839 18 315 0.0 0.0 0.00 0.00 0.00 57 1003.6
20260506203538 18 315 0.0 0.0 0.00 0.00 0.00 57 1003.6
20260506202838 18 315 0.0 0.0 0.00 0.00 0.00 57 1003.8
20260506202138 18 315 0.0 0.0 0.00 0.00 0.00 57 1003.7
20260506201438 19 315 0.0 0.0 0.00 0.00 0.00 56 1003.7
20260506200738 19 315 0.0 0.0 0.00 0.00 0.00 56 1003.6
20260506200038 19 315 0.0 0.0 0.00 0.00 0.00 56 1003.8
20260506195839 19 315 0.0 0.0 0.00 0.00 0.00 56 1003.9
20260506195338 19 315 0.0 0.0 0.00 0.00 0.00 55 1003.7
20260506194839 20 315 0.0 0.0 0.00 0.00 0.00 54 1003.7
20260506194638 20 315 0.0 0.0 0.00 0.00 0.00 54 1003.6
20260506193938 20 315 0.0 0.0 0.00 0.00 0.00 54 1003.7
20260506193839 20 315 0.0 0.0 0.00 0.00 0.00 54 1003.7
20260506193238 20 315 0.0 0.0 0.00 0.00 0.00 53 1003.5
20260506192538 20 315 0.0 0.0 0.00 0.00 0.00 53 1003.6
20260506191838 20 315 0.0 0.0 0.00 0.00 0.00 53 1003.6
20260506191138 20 315 0.0 0.0 0.00 0.00 0.00 53 1003.6
20260506190839 20 315 0.0 0.0 0.00 0.00 0.00 52 1003.6
20260506190438 21 315 0.0 0.0 0.00 0.00 0.00 52 1003.5
20260506185738 21 315 0.0 0.0 0.00 0.00 0.00 51 1003.3
20260506185038 21 315 0.0 0.0 0.00 0.00 0.00 50 1003.2
20260506184839 21 315 0.0 0.0 0.00 0.00 0.00 50 1003.2
20260506184338 21 315 0.0 0.0 0.00 0.00 0.00 50 1003.2
20260506183839 21 315 0.0 0.0 0.00 0.00 0.00 50 1003.2
20260506183638 21 315 0.0 0.0 0.00 0.00 0.00 50 1003.2
20260506182938 21 337 0.0 0.0 0.00 0.00 0.00 49 1003.1
20260506182238 22 337 0.0 0.0 0.00 0.00 0.00 49 1003.1
20260506181538 22 315 0.0 0.0 0.00 0.00 0.00 48 1003.1
20260506180838 22 337 0.0 0.0 0.00 0.00 0.00 48 1003.0
20260506180138 22 337 0.0 0.0 0.00 0.00 0.00 47 1003.1
20260506175839 22 337 0.0 0.0 0.00 0.00 0.00 47 1003.0
20260506175438 22 337 0.0 0.0 0.00 0.00 0.00 47 1002.9
20260506174839 22 337 0.0 0.0 0.00 0.00 0.00 47 1002.9
20260506174738 22 337 0.0 0.0 0.00 0.00 0.00 47 1002.8
20260506174038 22 337 0.0 0.0 0.00 0.00 0.00 47 1002.9
20260506173839 22 337 0.0 0.0 0.00 0.00 0.00 47 1002.9
20260506173338 22 337 0.0 0.0 0.00 0.00 0.00 46 1002.9
20260506172839 22 337 0.0 0.0 0.00 0.00 0.00 46 1002.7
20260506172638 22 337 0.0 0.0 0.00 0.00 0.00 46 1002.7
20260506171938 23 337 0.0 0.0 0.00 0.00 0.00 46 1002.8
20260506171839 23 315 0.0 0.0 0.00 0.00 0.00 46 1002.9
20260506171238 23 315 0.0 0.0 0.00 0.00 0.00 45 1002.8
20260506170839 23 337 0.0 0.0 0.00 0.00 0.00 45 1002.7
20260506170538 23 337 0.0 0.0 0.00 0.00 0.00 45 1002.7
20260506165838 23 337 0.0 0.0 0.00 0.00 0.00 45 1002.6
20260506165138 23 337 0.0 0.0 0.00 0.00 0.00 44 1002.7
20260506164839 23 337 0.0 0.0 0.00 0.00 0.00 44 1002.6
20260506164438 23 337 0.0 0.0 0.00 0.00 0.00 44 1002.6
20260506163839 23 337 0.0 0.0 0.00 0.00 0.00 44 1002.6
20260506163738 23 337 0.0 0.0 0.00 0.00 0.00 44 1002.6
20260506163038 23 337 0.0 0.0 0.00 0.00 0.00 44 1002.5
20260506162338 23 337 0.0 0.0 0.00 0.00 0.00 43 1002.6
20260506161839 24 202 0.0 0.0 0.00 0.00 0.00 43 1002.4
20260506161638 24 270 0.0 0.0 0.00 0.00 0.00 43 1002.4
20260506160938 24 315 0.0 0.0 0.00 0.00 0.00 43 1002.5
20260506160238 24 337 0.0 0.0 0.00 0.00 0.00 43 1002.3
20260506155839 24 337 0.0 0.0 0.00 0.00 0.00 44 1002.4
20260506155538 24 337 0.0 0.0 0.00 0.00 0.00 44 1002.3
20260506154838 24 337 0.0 0.0 0.00 0.00 0.00 44 1002.5
20260506154139 24 0 0.0 0.0 0.00 0.00 0.00 44 1002.6
20260506153439 24 337 0.0 0.0 0.00 0.00 0.00 44 1002.6
20260506152839 24 337 0.0 0.0 0.00 0.00 0.00 44 1002.7
20260506152739 24 337 0.0 0.0 0.00 0.00 0.00 44 1002.7
20260506152039 24 337 0.0 0.0 0.00 0.00 0.00 43 1002.6
20260506151339 24 202 0.0 0.0 0.00 0.00 0.00 43 1002.5
20260506150840 24 135 0.0 0.0 0.00 0.00 0.00 42 1002.7
20260506150639 24 135 0.0 0.0 0.00 0.00 0.00 42 1002.7
20260506145939 24 180 0.0 0.0 0.00 0.00 0.00 42 1002.8
20260506145839 24 180 0.0 0.0 0.00 0.00 0.00 42 1002.8
20260506145239 25 247 0.0 0.0 0.00 0.00 0.00 42 1002.9
20260506144839 25 247 0.0 0.0 0.00 0.00 0.00 42 1002.7
20260506144539 25 247 0.0 0.0 0.00 0.00 0.00 42 1002.7
20260506143839 25 180 0.0 0.0 0.00 0.00 0.00 42 1002.6
20260506143139 25 157 0.0 0.0 0.00 0.00 0.00 42 1002.5
20260506142839 24 180 0.0 0.0 0.00 0.00 0.00 42 1002.7
20260506142439 24 180 0.0 0.0 0.00 0.00 0.00 42 1002.7
20260506141839 24 180 0.0 0.0 0.00 0.00 0.00 42 1002.7
20260506141739 24 180 0.0 0.0 0.00 0.00 0.00 42 1002.7
20260506141039 24 180 0.0 0.0 0.00 0.00 0.00 42 1002.7
20260506140840 24 180 0.0 0.0 0.00 0.00 0.00 42 1002.7
20260506140339 25 202 0.0 0.0 0.00 0.00 0.00 42 1002.7
20260506135840 25 157 0.0 0.0 0.00 0.00 0.00 42 1002.7
20260506135639 25 337 0.0 0.0 0.00 0.00 0.00 42 1002.8
20260506134939 25 337 0.0 0.0 0.00 0.00 0.00 41 1002.7
20260506134840 25 337 0.0 0.0 0.00 0.00 0.00 41 1002.7
20260506134239 25 135 0.0 0.0 0.00 0.00 0.00 42 1002.5
20260506133539 25 157 0.0 0.0 0.00 0.00 0.00 42 1002.5
20260506132839 25 157 0.0 0.0 0.00 0.00 0.00 42 1002.6
20260506132139 25 315 0.0 0.0 0.00 0.00 0.00 42 1002.5
20260506131840 25 315 0.0 0.0 0.00 0.00 0.00 42 1002.5
20260506131439 25 90 0.0 0.0 0.00 0.00 0.00 42 1002.6
20260506130739 25 22 0.0 0.0 0.00 0.00 0.00 42 1002.6
20260506130039 25 180 0.0 0.0 0.00 0.00 0.00 42 1002.5
20260506125840 25 180 0.0 0.0 0.00 0.00 0.00 42 1002.7
20260506125339 25 337 0.0 0.0 0.00 0.00 0.00 43 1002.6
20260506124639 24 247 0.0 0.0 0.00 0.00 0.00 43 1002.6
20260506123939 24 337 0.0 0.0 0.00 0.00 0.00 43 1002.8
20260506123840 24 337 0.0 0.0 0.00 0.00 0.00 43 1002.7
20260506123239 24 157 0.0 0.0 0.00 0.00 0.00 43 1002.7
20260506122840 24 180 0.0 0.0 0.00 0.00 0.00 42 1002.7
20260506122539 25 90 0.0 0.0 0.00 0.00 0.00 42 1002.7
20260506121839 25 180 0.0 0.0 0.00 0.00 0.00 41 1002.8
20260506121139 25 180 0.0 0.0 0.00 0.00 0.00 41 1002.7
20260506120840 25 0 0.0 0.0 0.00 0.00 0.00 41 1002.6
20260506120439 25 180 0.0 0.0 0.00 0.00 0.00 41 1002.6
20260506115840 25 22 0.0 0.0 0.00 0.00 0.00 41 1002.6
20260506115739 25 292 0.0 0.0 0.00 0.00 0.00 40 1002.7
20260506115039 25 180 0.0 0.0 0.00 0.00 0.00 40 1002.6
20260506114840 25 180 0.0 0.0 0.00 0.00 0.00 40 1002.6
20260506114339 25 180 0.0 0.0 0.00 0.00 0.00 40 1002.7
20260506113639 26 157 0.0 0.0 0.00 0.00 0.00 39 1002.7
20260506112939 26 180 0.0 0.0 0.00 0.00 0.00 38 1002.7
20260506112840 26 180 0.0 0.0 0.00 0.00 0.00 38 1002.7
20260506112239 26 202 0.0 0.0 0.00 0.00 0.00 38 1002.7
20260506111840 27 157 0.0 0.0 0.00 0.00 0.00 38 1002.7
20260506111539 27 180 0.0 0.0 0.00 0.00 0.00 38 1002.7
20260506110839 27 0 0.0 0.0 0.00 0.00 0.00 38 1002.5
20260506110139 27 0 0.0 0.0 0.00 0.00 0.00 38 1002.5
20260506105840 27 180 0.0 0.0 0.00 0.00 0.00 38 1002.5
20260506105439 27 270 0.0 0.0 0.00 0.00 0.00 37 1002.4
20260506104840 27 202 0.0 0.0 0.00 0.00 0.00 37 1002.6
20260506104739 27 180 0.0 0.0 0.00 0.00 0.00 37 1002.5
20260506104039 27 225 0.0 0.0 0.00 0.00 0.00 37 1002.7
20260506103840 27 225 0.0 0.0 0.00 0.00 0.00 37 1002.7
20260506103339 27 157 0.0 0.0 0.00 0.00 0.00 37 1002.8
20260506102840 27 180 0.0 0.0 0.00 0.00 0.00 37 1002.6
20260506102639 27 202 0.0 0.0 0.00 0.00 0.00 37 1002.7
20260506101939 27 180 0.0 0.0 0.00 0.00 0.00 37 1002.7
20260506101239 27 180 0.0 0.0 0.00 0.00 0.00 37 1002.7
20260506100539 27 135 0.0 0.0 0.00 0.00 0.00 36 1002.8
20260506095839 27 180 0.0 0.0 0.00 0.00 0.00 36 1002.7
20260506095139 27 270 0.0 0.0 0.00 0.00 0.00 36 1002.7
20260506094840 27 157 0.0 0.0 0.00 0.00 0.00 36 1002.7
20260506094439 26 315 0.0 0.0 0.00 0.00 0.00 37 1002.7
20260506093840 26 157 0.0 0.0 0.00 0.00 0.00 37 1002.8
20260506093739 26 157 0.0 0.0 0.00 0.00 0.00 37 1002.8
20260506093039 25 0 0.0 0.0 0.00 0.00 0.00 37 1002.6
20260506092840 25 180 0.0 0.0 0.00 0.00 0.00 37 1002.7
20260506092339 26 157 0.0 0.0 0.00 0.00 0.00 37 1002.7
20260506091840 26 0 0.0 0.0 0.00 0.00 0.00 37 1002.7
20260506091639 25 180 0.0 0.0 0.00 0.00 0.00 37 1002.6
20260506090939 25 202 0.0 0.0 0.00 0.00 0.00 36 1002.6
20260506090840 26 225 0.0 0.0 0.00 0.00 0.00 35 1002.7
20260506090239 26 337 0.0 0.0 0.00 0.00 0.00 35 1002.6
20260506085840 27 225 0.0 0.0 0.00 0.00 0.00 34 1002.6
20260506085539 27 202 0.0 0.0 0.00 0.00 0.00 34 1002.6
20260506084839 28 225 0.0 0.0 0.00 0.00 0.00 34 1002.6
20260506084139 28 180 0.0 0.0 0.00 0.00 0.00 33 1002.6
20260506083840 28 180 0.0 0.0 0.00 0.00 0.00 34 1002.5
20260506083439 28 180 0.0 0.0 0.00 0.00 0.00 34 1002.3
20260506082840 28 202 0.0 0.0 0.00 0.00 0.00 34 1002.3
20260506082739 28 0 0.0 0.0 0.00 0.00 0.00 34 1002.3
20260506082039 28 202 0.0 0.0 0.00 0.00 0.00 34 1002.3
20260506081840 28 202 0.0 0.0 0.00 0.00 0.00 34 1002.3
20260506081339 28 180 0.0 0.0 0.00 0.00 0.00 34 1002.3
20260506080639 28 202 0.0 0.0 0.00 0.00 0.00 35 1002.3
20260506073139 26 225 0.0 0.0 0.00 0.00 0.00 39 1002.7
20260506072840 26 337 0.0 0.0 0.00 0.00 0.00 40 1002.7
20260506072439 26 157 0.0 0.0 0.00 0.00 0.00 40 1002.8
20260506071840 25 90 0.0 0.0 0.00 0.00 0.00 41 1003.0
20260506071739 25 90 0.0 0.0 0.00 0.00 0.00 42 1002.9
20260506071039 25 337 0.0 0.0 0.00 0.00 0.00 43 1002.8
20260506070840 24 337 0.0 0.0 0.00 0.00 0.00 43 1003.0
20260506070339 24 157 0.0 0.0 0.00 0.00 0.00 44 1003.1
20260506062139 22 225 0.0 0.0 0.00 0.00 0.00 52 1003.2
20260506061840 22 225 0.0 0.0 0.00 0.00 0.00 52 1003.1
20260506061439 21 225 0.0 0.0 0.00 0.00 0.00 53 1003.3
20260506060840 20 202 0.0 0.0 0.00 0.00 0.00 56 1003.4
20260506060739 20 202 0.0 0.0 0.00 0.00 0.00 56 1003.4